owner,sensor,date,latitude,longitude,vertical_datum,mass_concentration_of_oxygen_in_sea_water,qcFlag 
SCCF RECON,ioos:station:SCCF:13:1,2019-06-01T04:00:00Z,26.5255,-82.0032,2.44,6.28,11111222 
SCCF RECON,ioos:station:SCCF:13:1,2019-06-01T05:00:00Z,26.5255,-82.0032,2.49,6.39,11111222 
SCCF RECON,ioos:station:SCCF:13:1,2019-06-01T06:00:00Z,26.5255,-82.0032,2.49,6.27,11111222 
SCCF RECON,ioos:station:SCCF:13:1,2019-06-01T07:00:00Z,26.5255,-82.0032,2.43,6.09,11111222 
SCCF RECON,ioos:station:SCCF:13:1,2019-06-01T08:00:00Z,26.5255,-82.0032,2.359,5.95,11111222 
SCCF RECON,ioos:station:SCCF:13:1,2019-06-01T09:00:00Z,26.5255,-82.0032,2.3,5.75,11111222 
SCCF RECON,ioos:station:SCCF:13:1,2019-06-01T10:00:00Z,26.5255,-82.0032,2.26,5.28,11111222 
SCCF RECON,ioos:station:SCCF:13:1,2019-06-01T11:00:00Z,26.5255,-82.0032,2.238,5.27,11111222 
SCCF RECON,ioos:station:SCCF:13:1,2019-06-01T12:00:00Z,26.5255,-82.0032,2.31,5.25,11111222 
SCCF RECON,ioos:station:SCCF:13:1,2019-06-01T13:00:00Z,26.5255,-82.0032,2.409,4.64,11111222 
SCCF RECON,ioos:station:SCCF:13:1,2019-06-01T14:00:00Z,26.5255,-82.0032,2.491,4.89,11111222 
SCCF RECON,ioos:station:SCCF:13:1,2019-06-01T15:00:00Z,26.5255,-82.0032,2.57,5.64,11111222 
SCCF RECON,ioos:station:SCCF:13:1,2019-06-01T16:00:00Z,26.5255,-82.0032,2.61,6.15,11111222 
SCCF RECON,ioos:station:SCCF:13:1,2019-06-01T17:00:00Z,26.5255,-82.0032,2.599,6.29,11111222 
SCCF RECON,ioos:station:SCCF:13:1,2019-06-01T18:00:00Z,26.5255,-82.0032,2.55,6.87,11111222 
SCCF RECON,ioos:station:SCCF:13:1,2019-06-01T19:00:00Z,26.5255,-82.0032,2.43,7.05,11111222 
SCCF RECON,ioos:station:SCCF:13:1,2019-06-01T20:00:00Z,26.5255,-82.0032,2.313,7.31,11111222 
SCCF RECON,ioos:station:SCCF:13:1,2019-06-01T21:00:00Z,26.5255,-82.0032,2.222,7.21,11111222 
SCCF RECON,ioos:station:SCCF:13:1,2019-06-01T22:00:00Z,26.5255,-82.0032,2.129,6.97,11111222 
SCCF RECON,ioos:station:SCCF:13:1,2019-06-01T23:00:00Z,26.5255,-82.0032,2.05,6.52,11111222 
SCCF RECON,ioos:station:SCCF:13:1,2019-06-02T04:00:00Z,26.5255,-82.0032,2.35,5.38,11111222 
SCCF RECON,ioos:station:SCCF:13:1,2019-06-02T05:00:00Z,26.5255,-82.0032,2.405,5.86,11111222 
SCCF RECON,ioos:station:SCCF:13:1,2019-06-02T06:00:00Z,26.5255,-82.0032,2.43,5.93,11111222 
SCCF RECON,ioos:station:SCCF:13:1,2019-06-02T07:00:00Z,26.5255,-82.0032,2.41,6.07,11111222 
SCCF RECON,ioos:station:SCCF:13:1,2019-06-02T08:00:00Z,26.5255,-82.0032,2.34,5.95,11111222 
SCCF RECON,ioos:station:SCCF:13:1,2019-06-02T09:00:00Z,26.5255,-82.0032,2.29,5.79,11111222 
SCCF RECON,ioos:station:SCCF:13:1,2019-06-02T10:00:00Z,26.5255,-82.0032,2.25,5.52,11111222 
SCCF RECON,ioos:station:SCCF:13:1,2019-06-02T11:00:00Z,26.5255,-82.0032,2.25,5.11,11111222 
SCCF RECON,ioos:station:SCCF:13:1,2019-06-02T12:00:00Z,26.5255,-82.0032,2.29,4.87,11111222 
SCCF RECON,ioos:station:SCCF:13:1,2019-06-02T13:00:00Z,26.5255,-82.0032,2.39,4.65,11111222 
SCCF RECON,ioos:station:SCCF:13:1,2019-06-02T14:00:00Z,26.5255,-82.0032,2.489,4.94,11111222 
SCCF RECON,ioos:station:SCCF:13:1,2019-06-02T15:00:00Z,26.5255,-82.0032,2.551,5.74,11111222 
SCCF RECON,ioos:station:SCCF:13:1,2019-06-02T16:00:00Z,26.5255,-82.0032,2.612,6.44,11111222 
SCCF RECON,ioos:station:SCCF:13:1,2019-06-02T17:00:00Z,26.5255,-82.0032,2.65,6.53,11111222 
SCCF RECON,ioos:station:SCCF:13:1,2019-06-02T18:00:00Z,26.5255,-82.0032,2.64,7.1,11111222 
SCCF RECON,ioos:station:SCCF:13:1,2019-06-02T19:00:00Z,26.5255,-82.0032,2.532,7.53,11111222 
SCCF RECON,ioos:station:SCCF:13:1,2019-06-02T20:00:00Z,26.5255,-82.0032,2.408,7.69,11111222 
SCCF RECON,ioos:station:SCCF:13:1,2019-06-02T21:00:00Z,26.5255,-82.0032,2.291,7.42,11111222 
SCCF RECON,ioos:station:SCCF:13:1,2019-06-02T22:00:00Z,26.5255,-82.0032,2.198,7.15,11111222 
SCCF RECON,ioos:station:SCCF:13:1,2019-06-02T23:00:00Z,26.5255,-82.0032,2.11,6.65,11111222 
SCCF RECON,ioos:station:SCCF:13:1,2019-06-03T04:00:00Z,26.5255,-82.0032,2.31,4.97,11111222 
SCCF RECON,ioos:station:SCCF:13:1,2019-06-03T05:00:00Z,26.5255,-82.0032,2.38,5.31,11111222 
SCCF RECON,ioos:station:SCCF:13:1,2019-06-03T06:00:00Z,26.5255,-82.0032,2.44,5.75,11111222 
SCCF RECON,ioos:station:SCCF:13:1,2019-06-03T07:00:00Z,26.5255,-82.0032,2.46,5.89,11111222 
SCCF RECON,ioos:station:SCCF:13:1,2019-06-03T08:00:00Z,26.5255,-82.0032,2.43,6.03,11111222 
SCCF RECON,ioos:station:SCCF:13:1,2019-06-03T09:00:00Z,26.5255,-82.0032,2.38,5.77,11111222 
SCCF RECON,ioos:station:SCCF:13:1,2019-06-03T10:00:00Z,26.5255,-82.0032,2.35,5.75,11111222 
SCCF RECON,ioos:station:SCCF:13:1,2019-06-03T11:00:00Z,26.5255,-82.0032,2.32,5.31,11111222 
SCCF RECON,ioos:station:SCCF:13:1,2019-06-03T12:00:00Z,26.5255,-82.0032,2.313,4.99,11111222 
SCCF RECON,ioos:station:SCCF:13:1,2019-06-03T13:00:00Z,26.5255,-82.0032,2.37,4.74,11111222 
SCCF RECON,ioos:station:SCCF:13:1,2019-06-03T14:00:00Z,26.5255,-82.0032,2.484,4.48,11111222 
SCCF RECON,ioos:station:SCCF:13:1,2019-06-03T15:00:00Z,26.5255,-82.0032,2.576,5.55,11111222 
SCCF RECON,ioos:station:SCCF:13:1,2019-06-03T16:00:00Z,26.5255,-82.0032,2.639,6.23,11111222 
SCCF RECON,ioos:station:SCCF:13:1,2019-06-03T17:00:00Z,26.5255,-82.0032,2.69,6.57,11111222 
SCCF RECON,ioos:station:SCCF:13:1,2019-06-03T18:00:00Z,26.5255,-82.0032,2.69,6.88,11111222 
SCCF RECON,ioos:station:SCCF:13:1,2019-06-03T19:00:00Z,26.5255,-82.0032,2.62,7.37,11111222 
SCCF RECON,ioos:station:SCCF:13:1,2019-06-03T20:00:00Z,26.5255,-82.0032,2.5,7.35,11111222 
SCCF RECON,ioos:station:SCCF:13:1,2019-06-03T21:00:00Z,26.5255,-82.0032,2.385,7.49,11111222 
SCCF RECON,ioos:station:SCCF:13:1,2019-06-03T22:00:00Z,26.5255,-82.0032,2.29,7.21,11111222 
SCCF RECON,ioos:station:SCCF:13:1,2019-06-03T23:00:00Z,26.5255,-82.0032,2.182,6.83,11111222 
SCCF RECON,ioos:station:SCCF:13:1,2019-06-04T04:00:00Z,26.5255,-82.0032,2.27,5.74,11111222 
SCCF RECON,ioos:station:SCCF:13:1,2019-06-04T05:00:00Z,26.5255,-82.0032,2.35,4.68,11111222 
SCCF RECON,ioos:station:SCCF:13:1,2019-06-04T06:00:00Z,26.5255,-82.0032,2.41,5.28,11111222 
SCCF RECON,ioos:station:SCCF:13:1,2019-06-04T07:00:00Z,26.5255,-82.0032,2.46,5.63,11111222 
SCCF RECON,ioos:station:SCCF:13:1,2019-06-04T08:00:00Z,26.5255,-82.0032,2.47,5.61,11111222 
SCCF RECON,ioos:station:SCCF:13:1,2019-06-04T09:00:00Z,26.5255,-82.0032,2.43,5.65,11111222 
SCCF RECON,ioos:station:SCCF:13:1,2019-06-04T10:00:00Z,26.5255,-82.0032,2.38,5.55,11111222 
SCCF RECON,ioos:station:SCCF:13:1,2019-06-04T11:00:00Z,26.5255,-82.0032,2.36,5.43,11111222 
SCCF RECON,ioos:station:SCCF:13:1,2019-06-04T12:00:00Z,26.5255,-82.0032,2.34,5.12,11111222 
SCCF RECON,ioos:station:SCCF:13:1,2019-06-04T13:00:00Z,26.5255,-82.0032,2.36,4.88,11111222 
SCCF RECON,ioos:station:SCCF:13:1,2019-06-04T14:00:00Z,26.5255,-82.0032,2.42,4.83,11111222 
SCCF RECON,ioos:station:SCCF:13:1,2019-06-04T15:00:00Z,26.5255,-82.0032,2.52,5.15,11111222 
SCCF RECON,ioos:station:SCCF:13:1,2019-06-04T16:00:00Z,26.5255,-82.0032,2.619,6.01,11111222 
SCCF RECON,ioos:station:SCCF:13:1,2019-06-04T17:00:00Z,26.5255,-82.0032,2.663,6.64,11111222 
SCCF RECON,ioos:station:SCCF:13:1,2019-06-04T18:00:00Z,26.5255,-82.0032,2.7,6.92,11111222 
SCCF RECON,ioos:station:SCCF:13:1,2019-06-04T19:00:00Z,26.5255,-82.0032,2.68,7.14,11111222 
SCCF RECON,ioos:station:SCCF:13:1,2019-06-04T20:00:00Z,26.5255,-82.0032,2.583,7.43,11111222 
SCCF RECON,ioos:station:SCCF:13:1,2019-06-04T21:00:00Z,26.5255,-82.0032,2.457,7.64,11111222 
SCCF RECON,ioos:station:SCCF:13:1,2019-06-04T22:00:00Z,26.5255,-82.0032,2.35,7.35,11111222 
SCCF RECON,ioos:station:SCCF:13:1,2019-06-04T23:00:00Z,26.5255,-82.0032,2.279,7.11,11111222 
SCCF RECON,ioos:station:SCCF:13:1,2019-06-05T04:00:00Z,26.5255,-82.0032,2.13,5.59,11111222 
SCCF RECON,ioos:station:SCCF:13:1,2019-06-05T05:00:00Z,26.5255,-82.0032,2.24,5.6,11111222 
SCCF RECON,ioos:station:SCCF:13:1,2019-06-05T06:00:00Z,26.5255,-82.0032,2.33,4.64,11111222 
SCCF RECON,ioos:station:SCCF:13:1,2019-06-05T07:00:00Z,26.5255,-82.0032,2.39,5.25,11111222 
SCCF RECON,ioos:station:SCCF:13:1,2019-06-05T08:00:00Z,26.5255,-82.0032,2.44,5.18,11111222 
SCCF RECON,ioos:station:SCCF:13:1,2019-06-05T09:00:00Z,26.5255,-82.0032,2.445,5.37,11111222 
SCCF RECON,ioos:station:SCCF:13:1,2019-06-05T10:00:00Z,26.5255,-82.0032,2.42,5.41,11111222 
SCCF RECON,ioos:station:SCCF:13:1,2019-06-05T11:00:00Z,26.5255,-82.0032,2.38,5.15,11111222 
SCCF RECON,ioos:station:SCCF:13:1,2019-06-05T12:00:00Z,26.5255,-82.0032,2.35,5.29,11111222 
SCCF RECON,ioos:station:SCCF:13:1,2019-06-05T13:00:00Z,26.5255,-82.0032,2.34,4.97,11111222 
SCCF RECON,ioos:station:SCCF:13:1,2019-06-05T14:00:00Z,26.5255,-82.0032,2.392,5.07,11111222 
SCCF RECON,ioos:station:SCCF:13:1,2019-06-05T15:00:00Z,26.5255,-82.0032,2.48,5.23,11111222 
SCCF RECON,ioos:station:SCCF:13:1,2019-06-05T16:00:00Z,26.5255,-82.0032,2.57,6.39,11111222 
SCCF RECON,ioos:station:SCCF:13:1,2019-06-05T17:00:00Z,26.5255,-82.0032,2.64,6.78,11111222 
SCCF RECON,ioos:station:SCCF:13:1,2019-06-05T18:00:00Z,26.5255,-82.0032,2.68,6.86,11111222 
SCCF RECON,ioos:station:SCCF:13:1,2019-06-05T19:00:00Z,26.5255,-82.0032,2.691,7.19,11111222 
SCCF RECON,ioos:station:SCCF:13:1,2019-06-05T20:00:00Z,26.5255,-82.0032,2.667,7.51,11111222 
SCCF RECON,ioos:station:SCCF:13:1,2019-06-05T21:00:00Z,26.5255,-82.0032,2.56,7.55,11111222 
SCCF RECON,ioos:station:SCCF:13:1,2019-06-05T22:00:00Z,26.5255,-82.0032,2.44,7.67,11111222 
SCCF RECON,ioos:station:SCCF:13:1,2019-06-05T23:00:00Z,26.5255,-82.0032,2.341,7.39,11111222 
SCCF RECON,ioos:station:SCCF:13:1,2019-06-06T04:00:00Z,26.5255,-82.0032,2.03,5.6,11111222 
SCCF RECON,ioos:station:SCCF:13:1,2019-06-06T05:00:00Z,26.5255,-82.0032,2.154,5.48,11111222 
SCCF RECON,ioos:station:SCCF:13:1,2019-06-06T06:00:00Z,26.5255,-82.0032,2.25,5.43,11111222 
SCCF RECON,ioos:station:SCCF:13:1,2019-06-06T07:00:00Z,26.5255,-82.0032,2.32,4.52,11111222 
SCCF RECON,ioos:station:SCCF:13:1,2019-06-06T08:00:00Z,26.5255,-82.0032,2.37,5.03,11111222 
SCCF RECON,ioos:station:SCCF:13:1,2019-06-06T09:00:00Z,26.5255,-82.0032,2.4,5.0,11111222 
SCCF RECON,ioos:station:SCCF:13:1,2019-06-06T10:00:00Z,26.5255,-82.0032,2.41,5.03,11111222 
SCCF RECON,ioos:station:SCCF:13:1,2019-06-06T11:00:00Z,26.5255,-82.0032,2.401,4.97,11111222 
SCCF RECON,ioos:station:SCCF:13:1,2019-06-06T12:00:00Z,26.5255,-82.0032,2.38,4.98,11111222 
SCCF RECON,ioos:station:SCCF:13:1,2019-06-06T13:00:00Z,26.5255,-82.0032,2.34,4.73,11111222 
SCCF RECON,ioos:station:SCCF:13:1,2019-06-06T14:00:00Z,26.5255,-82.0032,2.33,4.9,11111222 
SCCF RECON,ioos:station:SCCF:13:1,2019-06-06T15:00:00Z,26.5255,-82.0032,2.4,4.95,11111222 
SCCF RECON,ioos:station:SCCF:13:1,2019-06-06T16:00:00Z,26.5255,-82.0032,2.48,5.47,11111222 
SCCF RECON,ioos:station:SCCF:13:1,2019-06-06T17:00:00Z,26.5255,-82.0032,2.55,6.79,11111222 
SCCF RECON,ioos:station:SCCF:13:1,2019-06-06T18:00:00Z,26.5255,-82.0032,2.61,6.87,11111222 
SCCF RECON,ioos:station:SCCF:13:1,2019-06-06T19:00:00Z,26.5255,-82.0032,2.66,7.22,11111222 
SCCF RECON,ioos:station:SCCF:13:1,2019-06-06T20:00:00Z,26.5255,-82.0032,2.679,7.29,11111222 
SCCF RECON,ioos:station:SCCF:13:1,2019-06-06T21:00:00Z,26.5255,-82.0032,2.65,7.42,11111222 
SCCF RECON,ioos:station:SCCF:13:1,2019-06-06T22:00:00Z,26.5255,-82.0032,2.55,7.4,11111222 
SCCF RECON,ioos:station:SCCF:13:1,2019-06-06T23:00:00Z,26.5255,-82.0032,2.428,7.34,11111222 
SCCF RECON,ioos:station:SCCF:13:1,2019-06-07T04:00:00Z,26.5255,-82.0032,2.008,5.76,11111222 
SCCF RECON,ioos:station:SCCF:13:1,2019-06-07T05:00:00Z,26.5255,-82.0032,2.05,5.57,11111222 
SCCF RECON,ioos:station:SCCF:13:1,2019-06-07T06:00:00Z,26.5255,-82.0032,2.16,5.49,11111222 
SCCF RECON,ioos:station:SCCF:13:1,2019-06-07T07:00:00Z,26.5255,-82.0032,2.26,5.15,11111222 
SCCF RECON,ioos:station:SCCF:13:1,2019-06-07T08:00:00Z,26.5255,-82.0032,2.34,4.7,11111222 
SCCF RECON,ioos:station:SCCF:13:1,2019-06-07T09:00:00Z,26.5255,-82.0032,2.4,5.19,11111222 
SCCF RECON,ioos:station:SCCF:13:1,2019-06-07T10:00:00Z,26.5255,-82.0032,2.432,4.97,11111222 
SCCF RECON,ioos:station:SCCF:13:1,2019-06-07T11:00:00Z,26.5255,-82.0032,2.43,4.83,11111222 
SCCF RECON,ioos:station:SCCF:13:1,2019-06-07T12:00:00Z,26.5255,-82.0032,2.39,4.97,11111222 
SCCF RECON,ioos:station:SCCF:13:1,2019-06-07T13:00:00Z,26.5255,-82.0032,2.37,5.06,11111222 
SCCF RECON,ioos:station:SCCF:13:1,2019-06-07T14:00:00Z,26.5255,-82.0032,2.35,4.86,11111222 
SCCF RECON,ioos:station:SCCF:13:1,2019-06-07T15:00:00Z,26.5255,-82.0032,2.362,5.01,11111222 
SCCF RECON,ioos:station:SCCF:13:1,2019-06-07T16:00:00Z,26.5255,-82.0032,2.44,4.83,11111222 
SCCF RECON,ioos:station:SCCF:13:1,2019-06-07T17:00:00Z,26.5255,-82.0032,2.5,5.32,11111222 
SCCF RECON,ioos:station:SCCF:13:1,2019-06-07T18:00:00Z,26.5255,-82.0032,2.56,6.37,11111222 
SCCF RECON,ioos:station:SCCF:13:1,2019-06-07T19:00:00Z,26.5255,-82.0032,2.609,6.65,11111222 
SCCF RECON,ioos:station:SCCF:13:1,2019-06-07T20:00:00Z,26.5255,-82.0032,2.63,6.86,11111222 
SCCF RECON,ioos:station:SCCF:13:1,2019-06-07T21:00:00Z,26.5255,-82.0032,2.64,7.21,11111222 
SCCF RECON,ioos:station:SCCF:13:1,2019-06-07T22:00:00Z,26.5255,-82.0032,2.622,7.01,11111222 
SCCF RECON,ioos:station:SCCF:13:1,2019-06-07T23:00:00Z,26.5255,-82.0032,2.53,7.0,11111222 
SCCF RECON,ioos:station:SCCF:13:1,2019-06-08T04:00:00Z,26.5255,-82.0032,2.06,5.77,11111222 
SCCF RECON,ioos:station:SCCF:13:1,2019-06-08T05:00:00Z,26.5255,-82.0032,2.03,5.52,11111222 
SCCF RECON,ioos:station:SCCF:13:1,2019-06-08T06:00:00Z,26.5255,-82.0032,2.13,5.32,11111222 
SCCF RECON,ioos:station:SCCF:13:1,2019-06-08T07:00:00Z,26.5255,-82.0032,2.22,5.29,11111222 
SCCF RECON,ioos:station:SCCF:13:1,2019-06-08T08:00:00Z,26.5255,-82.0032,2.27,5.0,11111222 
SCCF RECON,ioos:station:SCCF:13:1,2019-06-08T09:00:00Z,26.5255,-82.0032,2.33,4.43,11111222 
SCCF RECON,ioos:station:SCCF:13:1,2019-06-08T10:00:00Z,26.5255,-82.0032,2.41,4.87,11111222 
SCCF RECON,ioos:station:SCCF:13:1,2019-06-08T11:00:00Z,26.5255,-82.0032,2.46,4.83,11111222 
SCCF RECON,ioos:station:SCCF:13:1,2019-06-08T12:00:00Z,26.5255,-82.0032,2.46,4.88,11111222 
SCCF RECON,ioos:station:SCCF:13:1,2019-06-08T13:00:00Z,26.5255,-82.0032,2.44,5.07,11111222 
SCCF RECON,ioos:station:SCCF:13:1,2019-06-08T14:00:00Z,26.5255,-82.0032,2.42,5.29,11111222 
SCCF RECON,ioos:station:SCCF:13:1,2019-06-08T15:00:00Z,26.5255,-82.0032,2.39,5.38,11111222 
SCCF RECON,ioos:station:SCCF:13:1,2019-06-08T16:00:00Z,26.5255,-82.0032,2.359,5.73,11111222 
SCCF RECON,ioos:station:SCCF:13:1,2019-06-08T17:00:00Z,26.5255,-82.0032,2.392,5.72,11111222 
SCCF RECON,ioos:station:SCCF:13:1,2019-06-08T18:00:00Z,26.5255,-82.0032,2.46,6.25,11111222 
SCCF RECON,ioos:station:SCCF:13:1,2019-06-08T19:00:00Z,26.5255,-82.0032,2.528,6.51,11111222 
SCCF RECON,ioos:station:SCCF:13:1,2019-06-09T04:00:00Z,26.5255,-82.0032,2.179,5.9,11111222 
SCCF RECON,ioos:station:SCCF:13:1,2019-06-09T05:00:00Z,26.5255,-82.0032,2.111,5.82,11111222 
SCCF RECON,ioos:station:SCCF:13:1,2019-06-09T06:00:00Z,26.5255,-82.0032,2.073,5.6,11111222 
SCCF RECON,ioos:station:SCCF:13:1,2019-06-09T07:00:00Z,26.5255,-82.0032,2.16,5.44,11111222 
SCCF RECON,ioos:station:SCCF:13:1,2019-06-09T08:00:00Z,26.5255,-82.0032,2.274,5.37,11111222 
SCCF RECON,ioos:station:SCCF:13:1,2019-06-09T09:00:00Z,26.5255,-82.0032,2.342,4.48,11111222 
SCCF RECON,ioos:station:SCCF:13:1,2019-06-09T10:00:00Z,26.5255,-82.0032,2.45,4.8,11111222 
SCCF RECON,ioos:station:SCCF:13:1,2019-06-09T11:00:00Z,26.5255,-82.0032,2.48,4.85,11111222 
SCCF RECON,ioos:station:SCCF:13:1,2019-06-09T12:00:00Z,26.5255,-82.0032,2.49,4.72,11111222 
SCCF RECON,ioos:station:SCCF:13:1,2019-06-09T13:00:00Z,26.5255,-82.0032,2.519,5.1,11111222 
SCCF RECON,ioos:station:SCCF:13:1,2019-06-09T14:00:00Z,26.5255,-82.0032,2.471,5.42,11111222 
SCCF RECON,ioos:station:SCCF:13:1,2019-06-09T15:00:00Z,26.5255,-82.0032,2.424,5.56,11111222 
SCCF RECON,ioos:station:SCCF:13:1,2019-06-09T16:00:00Z,26.5255,-82.0032,2.403,5.69,11111222 
SCCF RECON,ioos:station:SCCF:13:1,2019-06-09T17:00:00Z,26.5255,-82.0032,2.405,5.98,11111222 
SCCF RECON,ioos:station:SCCF:13:1,2019-06-09T18:00:00Z,26.5255,-82.0032,2.421,5.8,11111222 
SCCF RECON,ioos:station:SCCF:13:1,2019-06-09T19:00:00Z,26.5255,-82.0032,2.478,6.35,11111222 
SCCF RECON,ioos:station:SCCF:13:1,2019-06-09T20:00:00Z,26.5255,-82.0032,2.52,7.08,11111222 
SCCF RECON,ioos:station:SCCF:13:1,2019-06-09T21:00:00Z,26.5255,-82.0032,2.56,6.74,11111222 
SCCF RECON,ioos:station:SCCF:13:1,2019-06-09T22:00:00Z,26.5255,-82.0032,2.58,6.56,11111222 
SCCF RECON,ioos:station:SCCF:13:1,2019-06-09T23:00:00Z,26.5255,-82.0032,2.6,6.53,11111222 
SCCF RECON,ioos:station:SCCF:13:1,2019-06-10T04:00:00Z,26.5255,-82.0032,2.26,6.07,11111222 
SCCF RECON,ioos:station:SCCF:13:1,2019-06-10T05:00:00Z,26.5255,-82.0032,2.18,6.02,11111222 
SCCF RECON,ioos:station:SCCF:13:1,2019-06-10T06:00:00Z,26.5255,-82.0032,2.14,5.85,11111222 
SCCF RECON,ioos:station:SCCF:13:1,2019-06-10T07:00:00Z,26.5255,-82.0032,2.15,5.71,11111222 
SCCF RECON,ioos:station:SCCF:13:1,2019-06-10T08:00:00Z,26.5255,-82.0032,2.13,5.5,11111222 
SCCF RECON,ioos:station:SCCF:13:1,2019-06-10T09:00:00Z,26.5255,-82.0032,2.18,5.36,11111222 
SCCF RECON,ioos:station:SCCF:13:1,2019-06-10T10:00:00Z,26.5255,-82.0032,2.33,5.17,11111222 
SCCF RECON,ioos:station:SCCF:13:1,2019-06-10T11:00:00Z,26.5255,-82.0032,2.391,4.83,11111222 
SCCF RECON,ioos:station:SCCF:13:1,2019-06-10T12:00:00Z,26.5255,-82.0032,2.43,4.93,11111222 
SCCF RECON,ioos:station:SCCF:13:1,2019-06-10T13:00:00Z,26.5255,-82.0032,2.46,4.86,11111222 
SCCF RECON,ioos:station:SCCF:13:1,2019-06-10T15:00:00Z,26.5255,-82.0032,2.403,4.78,11111222 
SCCF RECON,ioos:station:SCCF:13:1,2019-06-10T16:00:00Z,26.5255,-82.0032,2.368,5.08,11111222 
SCCF RECON,ioos:station:SCCF:13:1,2019-06-10T17:00:00Z,26.5255,-82.0032,2.27,5.32,11111222 
SCCF RECON,ioos:station:SCCF:13:1,2019-06-10T18:00:00Z,26.5255,-82.0032,2.21,6.03,11111222 
SCCF RECON,ioos:station:SCCF:13:1,2019-06-10T19:00:00Z,26.5255,-82.0032,2.18,6.24,11111222 
SCCF RECON,ioos:station:SCCF:13:1,2019-06-10T20:00:00Z,26.5255,-82.0032,2.23,6.36,11111222 
SCCF RECON,ioos:station:SCCF:13:1,2019-06-10T21:00:00Z,26.5255,-82.0032,2.322,6.49,11111222 
SCCF RECON,ioos:station:SCCF:13:1,2019-06-10T22:00:00Z,26.5255,-82.0032,2.38,7.13,11111222 
SCCF RECON,ioos:station:SCCF:13:1,2019-06-10T23:00:00Z,26.5255,-82.0032,2.41,6.83,11111222 
SCCF RECON,ioos:station:SCCF:13:1,2019-06-11T04:00:00Z,26.5255,-82.0032,2.284,6.04,11111222 
SCCF RECON,ioos:station:SCCF:13:1,2019-06-11T05:00:00Z,26.5255,-82.0032,2.204,6.0,11111222 
SCCF RECON,ioos:station:SCCF:13:1,2019-06-11T06:00:00Z,26.5255,-82.0032,2.13,6.06,11111222 
SCCF RECON,ioos:station:SCCF:13:1,2019-06-11T07:00:00Z,26.5255,-82.0032,2.08,6.19,11111222 
SCCF RECON,ioos:station:SCCF:13:1,2019-06-11T08:00:00Z,26.5255,-82.0032,2.11,6.34,11111222 
SCCF RECON,ioos:station:SCCF:13:1,2019-06-11T09:00:00Z,26.5255,-82.0032,2.202,6.27,11111222 
SCCF RECON,ioos:station:SCCF:13:1,2019-06-11T10:00:00Z,26.5255,-82.0032,2.31,5.35,11111222 
SCCF RECON,ioos:station:SCCF:13:1,2019-06-11T11:00:00Z,26.5255,-82.0032,2.37,4.86,11111222 
SCCF RECON,ioos:station:SCCF:13:1,2019-06-11T12:00:00Z,26.5255,-82.0032,2.42,5.0,11111222 
SCCF RECON,ioos:station:SCCF:13:1,2019-06-11T13:00:00Z,26.5255,-82.0032,2.49,5.33,11111222 
SCCF RECON,ioos:station:SCCF:13:1,2019-06-11T14:00:00Z,26.5255,-82.0032,2.53,5.43,11111222 
SCCF RECON,ioos:station:SCCF:13:1,2019-06-11T15:00:00Z,26.5255,-82.0032,2.51,5.81,11111222 
SCCF RECON,ioos:station:SCCF:13:1,2019-06-11T16:00:00Z,26.5255,-82.0032,2.41,5.92,11111222 
SCCF RECON,ioos:station:SCCF:13:1,2019-06-11T17:00:00Z,26.5255,-82.0032,2.32,6.12,11111222 
SCCF RECON,ioos:station:SCCF:13:1,2019-06-11T18:00:00Z,26.5255,-82.0032,2.25,6.47,11111222 
SCCF RECON,ioos:station:SCCF:13:1,2019-06-11T21:00:00Z,26.5255,-82.0032,2.168,6.83,11111222 
SCCF RECON,ioos:station:SCCF:13:1,2019-06-11T22:00:00Z,26.5255,-82.0032,2.261,6.9,11111222 
SCCF RECON,ioos:station:SCCF:13:1,2019-06-11T23:00:00Z,26.5255,-82.0032,2.32,6.45,11111222 
SCCF RECON,ioos:station:SCCF:13:1,2019-06-12T04:00:00Z,26.5255,-82.0032,2.44,5.94,11111222 
SCCF RECON,ioos:station:SCCF:13:1,2019-06-12T05:00:00Z,26.5255,-82.0032,2.35,5.89,11111222 
SCCF RECON,ioos:station:SCCF:13:1,2019-06-12T06:00:00Z,26.5255,-82.0032,2.26,5.71,11111222 
SCCF RECON,ioos:station:SCCF:13:1,2019-06-12T07:00:00Z,26.5255,-82.0032,2.19,5.73,11111222 
SCCF RECON,ioos:station:SCCF:13:1,2019-06-12T08:00:00Z,26.5255,-82.0032,2.14,5.79,11111222 
SCCF RECON,ioos:station:SCCF:13:1,2019-06-12T09:00:00Z,26.5255,-82.0032,2.181,5.82,11111222 
SCCF RECON,ioos:station:SCCF:13:1,2019-06-12T10:00:00Z,26.5255,-82.0032,2.31,5.78,11111222 
SCCF RECON,ioos:station:SCCF:13:1,2019-06-12T11:00:00Z,26.5255,-82.0032,2.401,4.67,11111222 
SCCF RECON,ioos:station:SCCF:13:1,2019-06-12T12:00:00Z,26.5255,-82.0032,2.47,4.87,11111222 
SCCF RECON,ioos:station:SCCF:13:1,2019-06-12T13:00:00Z,26.5255,-82.0032,2.52,5.23,11111222 
SCCF RECON,ioos:station:SCCF:13:1,2019-06-12T14:00:00Z,26.5255,-82.0032,2.55,5.69,11111222 
SCCF RECON,ioos:station:SCCF:13:1,2019-06-12T15:00:00Z,26.5255,-82.0032,2.55,5.22,11111222 
SCCF RECON,ioos:station:SCCF:13:1,2019-06-12T16:00:00Z,26.5255,-82.0032,2.52,5.53,11111222 
SCCF RECON,ioos:station:SCCF:13:1,2019-06-12T17:00:00Z,26.5255,-82.0032,2.436,5.66,11111222 
SCCF RECON,ioos:station:SCCF:13:1,2019-06-12T18:00:00Z,26.5255,-82.0032,2.331,6.02,11111222 
SCCF RECON,ioos:station:SCCF:13:1,2019-06-12T19:00:00Z,26.5255,-82.0032,2.258,6.48,11111222 
SCCF RECON,ioos:station:SCCF:13:1,2019-06-12T20:00:00Z,26.5255,-82.0032,2.186,6.74,11111222 
SCCF RECON,ioos:station:SCCF:13:1,2019-06-12T21:00:00Z,26.5255,-82.0032,2.122,6.62,11111222 
SCCF RECON,ioos:station:SCCF:13:1,2019-06-12T22:00:00Z,26.5255,-82.0032,2.1,6.76,11111222 
SCCF RECON,ioos:station:SCCF:13:1,2019-06-12T23:00:00Z,26.5255,-82.0032,2.14,6.86,11111222 
SCCF RECON,ioos:station:SCCF:13:1,2019-06-13T04:00:00Z,26.5255,-82.0032,2.44,6.18,11111222 
SCCF RECON,ioos:station:SCCF:13:1,2019-06-13T05:00:00Z,26.5255,-82.0032,2.38,6.08,11111222 
SCCF RECON,ioos:station:SCCF:13:1,2019-06-13T06:00:00Z,26.5255,-82.0032,2.31,5.88,11111222 
SCCF RECON,ioos:station:SCCF:13:1,2019-06-13T07:00:00Z,26.5255,-82.0032,2.259,5.48,11111222 
SCCF RECON,ioos:station:SCCF:13:1,2019-06-13T08:00:00Z,26.5255,-82.0032,2.217,5.49,11111222 
SCCF RECON,ioos:station:SCCF:13:1,2019-06-13T09:00:00Z,26.5255,-82.0032,2.2,5.33,11111222 
SCCF RECON,ioos:station:SCCF:13:1,2019-06-13T10:00:00Z,26.5255,-82.0032,2.23,5.46,11111222 
SCCF RECON,ioos:station:SCCF:13:1,2019-06-13T11:00:00Z,26.5255,-82.0032,2.32,5.02,11111222 
SCCF RECON,ioos:station:SCCF:13:1,2019-06-13T12:00:00Z,26.5255,-82.0032,2.41,4.55,11111222 
SCCF RECON,ioos:station:SCCF:13:1,2019-06-13T13:00:00Z,26.5255,-82.0032,2.49,4.73,11111222 
SCCF RECON,ioos:station:SCCF:13:1,2019-06-13T14:00:00Z,26.5255,-82.0032,2.57,5.59,11111222 
SCCF RECON,ioos:station:SCCF:13:1,2019-06-13T15:00:00Z,26.5255,-82.0032,2.62,5.58,11111222 
SCCF RECON,ioos:station:SCCF:13:1,2019-06-13T16:00:00Z,26.5255,-82.0032,2.6,5.72,11111222 
SCCF RECON,ioos:station:SCCF:13:1,2019-06-13T17:00:00Z,26.5255,-82.0032,2.475,6.08,11111222 
SCCF RECON,ioos:station:SCCF:13:1,2019-06-13T18:00:00Z,26.5255,-82.0032,2.363,6.39,11111222 
SCCF RECON,ioos:station:SCCF:13:1,2019-06-13T19:00:00Z,26.5255,-82.0032,2.274,6.46,11111222 
SCCF RECON,ioos:station:SCCF:13:1,2019-06-13T20:00:00Z,26.5255,-82.0032,2.19,6.55,11111222 
SCCF RECON,ioos:station:SCCF:13:1,2019-06-13T21:00:00Z,26.5255,-82.0032,2.11,6.47,11111222 
SCCF RECON,ioos:station:SCCF:13:1,2019-06-13T22:00:00Z,26.5255,-82.0032,2.052,6.33,11111222 
SCCF RECON,ioos:station:SCCF:13:1,2019-06-13T23:00:00Z,26.5255,-82.0032,2.07,6.36,11111222 
SCCF RECON,ioos:station:SCCF:13:1,2019-06-14T04:00:00Z,26.5255,-82.0032,2.32,5.26,11111222 
SCCF RECON,ioos:station:SCCF:13:1,2019-06-14T05:00:00Z,26.5255,-82.0032,2.36,5.53,11111222 
SCCF RECON,ioos:station:SCCF:13:1,2019-06-14T06:00:00Z,26.5255,-82.0032,2.36,5.65,11111222 
SCCF RECON,ioos:station:SCCF:13:1,2019-06-14T07:00:00Z,26.5255,-82.0032,2.3,5.42,11111222 
SCCF RECON,ioos:station:SCCF:13:1,2019-06-14T08:00:00Z,26.5255,-82.0032,2.24,5.23,11111222 
SCCF RECON,ioos:station:SCCF:13:1,2019-06-14T09:00:00Z,26.5255,-82.0032,2.19,4.76,11111222 